Galveston, TX

7:15 AM CST on February 21, 2017 (GMT -0600)
Scholes International At Galveston

Weather History for KGLS - November, 2013

Change the Weather History Date:

Friday, November 29, 2013

  Actual Average Record
Temperature  
Mean Temperature 51 °F 61 °F  
Max Temperature 58 °F 67 °F 82 °F (2016)
Min Temperature 44 °F 54 °F 26 °F (1911)
Degree Days  
Heating Degree Days 14 6  
Month to date heating degree days 171 87  
Since 1 July heating degree days 171 96  
Cooling Degree Days 0 2  
Month to date cooling degree days 66 98  
Year to date cooling degree days 3311 3290  
Moisture  
Dew Point 43 °F    
Average Humidity 75    
Maximum Humidity 93    
Minimum Humidity 57    
Precipitation  
Precipitation 0.00 in 0.17 in 4.26 in (1977)
Month to date precipitation 2.45 4.34  
Year to date precipitation 38.59 47.07  
Snow  
Snow 0.00 in - - ()
Month to date snowfall 0.0  
Since 1 July snowfall 0.0  
Since 1 September snowfall 0.0  
Snow Depth 0.00 in    
Sea Level Pressure  
Sea Level Pressure 30.45 in    
Wind  
Wind Speed 9 mph (ENE)    
Max Wind Speed 16 mph    
Max Gust Speed 18 mph    
Visibility 10 miles    
Events      
T = Trace of Precipitation, MM = Missing Value Source: NWS Daily Summary

Daily Weather History Graph

Daily Weather History Graph

Search for Another Location

Airport or City:

Trip Planner

Search our weather history database for the weather conditions in past years. The results will help you decide how hot, cold, wet, or windy it might be!

Date:

Astronomy

Nov. 29, 2013 Rise Set
Actual Time 6:54 AM CST 5:20 PM CST
Civil Twilight 6:29 AM CST 5:46 PM CST
Nautical Twilight 5:59 AM CST 6:15 PM CST
Astronomical Twilight 5:31 AM CST 6:44 PM CST
Moon 3:16 AM CST (11/29) 2:53 PM CST (11/29)
Length of Visible Light 11h 17m
Length of Day
10h 26m
Waning Crescent, 14% of the Moon is Illuminated
Nov 29
Waning Crescent
Dec 2
New
Dec 9
First Quarter
Dec 17
Full
Dec 25
Last Quarter

Hourly Weather History & Observations

Time (CST) Temp. Windchill Dew Point Humidity Pressure Visibility Wind Dir Wind Speed Gust Speed Precip Events Conditions
12:52 AM 48.9 °F - 43.0 °F 80% 30.47 in 10.0 mi NE 9.2 mph - N/A   Clear
1:52 AM 48.9 °F - 42.1 °F 77% 30.46 in 10.0 mi NE 8.1 mph - N/A   Clear
2:52 AM 46.9 °F - 41.0 °F 80% 30.46 in 10.0 mi NE 6.9 mph - N/A   Clear
3:52 AM 45.0 °F 40.6 °F 42.1 °F 90% 30.46 in 10.0 mi NNE 8.1 mph - N/A   Clear
4:52 AM 44.1 °F 38.6 °F 41.0 °F 89% 30.46 in 10.0 mi NNE 10.4 mph - N/A   Clear
5:52 AM 45.0 °F 40.6 °F 42.1 °F 90% 30.46 in 10.0 mi NE 8.1 mph - N/A   Clear
6:52 AM 46.9 °F - 43.0 °F 86% 30.48 in 10.0 mi NE 10.4 mph - N/A   Clear
7:52 AM 46.9 °F - 44.1 °F 90% 30.49 in 10.0 mi NNE 6.9 mph - N/A   Clear
8:52 AM 51.1 °F - 45.0 °F 80% 30.50 in 10.0 mi NNE 8.1 mph - N/A   Clear
9:52 AM 54.0 °F - 44.1 °F 69% 30.51 in 10.0 mi ENE 10.4 mph - N/A   Clear
10:52 AM 55.9 °F - 44.1 °F 64% 30.51 in 10.0 mi East 12.7 mph - N/A   Clear
11:52 AM 57.0 °F - 43.0 °F 59% 30.48 in 10.0 mi ENE 11.5 mph - N/A   Clear
12:52 PM 55.9 °F - 44.1 °F 64% 30.47 in 10.0 mi ENE 11.5 mph - N/A   Clear
1:52 PM 57.0 °F - 44.1 °F 62% 30.45 in 10.0 mi ENE 8.1 mph - N/A   Clear
2:52 PM 55.9 °F - 42.1 °F 60% 30.43 in 10.0 mi East 11.5 mph - N/A   Clear
3:52 PM 55.0 °F - 42.1 °F 62% 30.41 in 10.0 mi East 12.7 mph - N/A   Clear
4:52 PM 54.0 °F - 41.0 °F 62% 30.42 in 10.0 mi East 8.1 mph - N/A   Clear
5:52 PM 53.1 °F - 41.0 °F 64% 30.42 in 10.0 mi East 9.2 mph - N/A   Clear
6:52 PM 52.0 °F - 39.0 °F 61% 30.43 in 10.0 mi East 5.8 mph - N/A   Clear
7:52 PM 53.1 °F - 39.9 °F 61% 30.43 in 10.0 mi East 9.2 mph - N/A   Clear
8:52 PM 53.1 °F - 41.0 °F 64% 30.44 in 10.0 mi East 9.2 mph - N/A   Clear
9:52 PM 54.0 °F - 42.1 °F 64% 30.43 in 10.0 mi East 8.1 mph - N/A   Clear
10:52 PM 55.9 °F - 45.0 °F 67% 30.42 in 10.0 mi ESE 10.4 mph - N/A   Clear
11:52 PM 55.9 °F - 45.0 °F 67% 30.40 in 10.0 mi ESE 9.2 mph - N/A   Clear